"Period start","avg(HW err(1)/warn(2) (#))","avg(Visibility (m))","avg(Weather code (#))","avg(Precip intensity (mm/h))","min(HW err(1)/warn(2) (#))","max(HW err(1)/warn(2) (#))","std(HW err(1)/warn(2) (#))","med(HW err(1)/warn(2) (#))","min(Visibility (m))","max(Visibility (m))","std(Visibility (m))","med(Visibility (m))","min(Weather code (#))","max(Weather code (#))","std(Weather code (#))","med(Weather code (#))","min(Precip intensity (mm/h))","max(Precip intensity (mm/h))","std(Precip intensity (mm/h))","med(Precip intensity (mm/h))"
2016-10-22 00:00:00,1,,,,1,1,0,1,,,,,,,,,,,,
2016-10-22 00:10:00,1,,,,1,1,0,1,,,,,,,,,,,,
2016-10-22 00:20:00,1,,,,1,1,0,1,,,,,,,,,,,,
2016-10-22 00:30:00,1,,,,1,1,0,1,,,,,,,,,,,,
2016-10-22 00:40:00,1,,,,1,1,0,1,,,,,,,,,,,,
2016-10-22 00:50:00,1,,,,1,1,0,1,,,,,,,,,,,,
2016-10-22 01:00:00,1,,,,1,1,0,1,,,,,,,,,,,,
2016-10-22 01:10:00,1,,,,1,1,0,1,,,,,,,,,,,,
2016-10-22 01:20:00,1,,,,1,1,0,1,,,,,,,,,,,,
2016-10-22 01:30:00,1,,,,1,1,0,1,,,,,,,,,,,,
2016-10-22 01:40:00,1,,,,1,1,0,1,,,,,,,,,,,,
2016-10-22 01:50:00,1,,,,1,1,0,1,,,,,,,,,,,,
2016-10-22 02:00:00,1,,,,1,1,0,1,,,,,,,,,,,,
2016-10-22 02:10:00,1,,,,1,1,0,1,,,,,,,,,,,,
2016-10-22 02:20:00,1,,,,1,1,0,1,,,,,,,,,,,,
2016-10-22 02:30:00,1,,,,1,1,0,1,,,,,,,,,,,,
2016-10-22 02:40:00,1,,,,1,1,0,1,,,,,,,,,,,,
2016-10-22 02:50:00,1,,,,1,1,0,1,,,,,,,,,,,,
2016-10-22 03:00:00,1,,,,1,1,0,1,,,,,,,,,,,,
2016-10-22 03:10:00,1,,,,1,1,0,1,,,,,,,,,,,,
2016-10-22 03:20:00,1,,,,1,1,0,1,,,,,,,,,,,,
2016-10-22 03:30:00,1,,,,1,1,0,1,,,,,,,,,,,,
2016-10-22 03:40:00,1,,,,1,1,0,1,,,,,,,,,,,,
2016-10-22 03:50:00,1,,,,1,1,0,1,,,,,,,,,,,,
2016-10-22 04:00:00,1,,,,1,1,0,1,,,,,,,,,,,,
2016-10-22 04:10:00,1,,,,1,1,0,1,,,,,,,,,,,,
2016-10-22 04:20:00,2,2394,,0.00,1,2,0,2,1823,3123,525,2170,,,,,0.00,0.00,0.00,0.00
2016-10-22 04:30:00,2,1923,10,0.00,2,2,0,2,839,3147,769,2016,10,10,0,10,0.00,0.00,0.00,0.00
2016-10-22 04:40:00,1,591,10,0.00,1,2,0,1,0,1182,591,591,10,10,0,10,0.00,0.00,0.00,0.00
2016-10-22 04:50:00,1,,,,1,1,0,1,,,,,,,,,,,,
2016-10-22 05:00:00,1,,,,1,1,0,1,,,,,,,,,,,,
2016-10-22 05:10:00,1,,,,1,1,0,1,,,,,,,,,,,,
2016-10-22 05:20:00,1,,,,1,1,0,1,,,,,,,,,,,,
2016-10-22 05:30:00,1,,,,1,1,0,1,,,,,,,,,,,,
2016-10-22 05:40:00,2,2777,,0.00,1,2,0,2,2418,3154,299,2747,,,,,0.00,0.00,0.00,0.00
2016-10-22 05:50:00,2,1469,10,0.00,1,2,0,2,998,2144,471,1303,10,10,0,10,0.00,0.00,0.00,0.00
2016-10-22 06:00:00,1,,,,1,1,0,1,,,,,,,,,,,,
2016-10-22 06:10:00,1,,,,1,1,0,1,,,,,,,,,,,,
2016-10-22 06:20:00,1,,,,1,1,0,1,,,,,,,,,,,,
2016-10-22 06:30:00,1,,,,1,1,0,1,,,,,,,,,,,,
2016-10-22 06:40:00,1,,,,1,1,0,1,,,,,,,,,,,,
2016-10-22 06:50:00,1,238,72,0.75,1,2,0,1,0,476,238,238,72,72,0,72,0.55,0.95,0.20,0.75
2016-10-22 07:00:00,1,787,71,0.32,1,2,0,1,0,1566,639,796,71,72,0,71,0.05,0.60,0.22,0.30
2016-10-22 07:10:00,2,893,73,0.31,2,2,0,2,608,1339,242,838,71,77,3,71,0.05,0.70,0.21,0.28
2016-10-22 07:20:00,2,1220,77,0.13,2,2,0,2,644,1828,373,1219,77,77,0,77,0.00,0.40,0.12,0.10
2016-10-22 07:30:00,2,1054,65,0.15,2,2,0,2,755,1669,289,930,20,77,20,77,0.00,0.85,0.24,0.12
2016-10-22 07:40:00,2,920,77,0.10,1,2,0,2,735,1225,157,894,77,77,0,77,0.05,0.20,0.05,0.10
2016-10-22 07:50:00,1,,,,1,1,0,1,,,,,,,,,,,,
2016-10-22 08:00:00,2,1430,77,0.05,1,2,0,2,1040,1842,292,1250,77,77,0,77,0.05,0.05,0.00,0.05
2016-10-22 08:10:00,2,1548,77,0.05,2,2,0,2,1289,1887,175,1531,77,77,0,77,0.05,0.05,0.00,0.05
2016-10-22 08:20:00,2,2087,77,0.03,2,2,0,2,1395,3097,517,1922,77,77,0,77,0.00,0.10,0.03,0.00
2016-10-22 08:30:00,2,2314,43,0.01,2,2,0,2,1580,3394,518,2250,20,77,28,20,0.00,0.05,0.02,0.00
2016-10-22 08:40:00,2,2192,20,0.00,2,2,0,2,1434,2865,489,2258,20,20,0,20,0.00,0.00,0.00,0.00
2016-10-22 08:50:00,2,1271,28,0.01,2,2,0,2,1020,1549,174,1238,10,71,22,20,0.00,0.05,0.02,0.00
2016-10-22 09:00:00,2,1346,50,0.05,2,2,0,2,760,2317,525,1170,10,77,33,77,0.00,0.25,0.08,0.00
2016-10-22 09:10:00,2,1084,63,0.21,2,2,0,2,404,2341,626,916,10,77,22,71,0.00,0.80,0.25,0.12
2016-10-22 09:20:00,2,1152,76,0.15,2,2,0,2,851,1846,290,1041,71,77,2,77,0.05,0.55,0.14,0.12
2016-10-22 09:30:00,2,954,75,0.40,2,2,0,2,350,1635,312,976,71,77,3,77,0.00,1.45,0.45,0.20
2016-10-22 09:40:00,2,618,71,0.95,2,2,0,2,344,1099,237,564,71,72,0,71,0.05,2.65,0.88,0.68
2016-10-22 09:50:00,2,614,72,1.06,2,2,0,2,345,1021,183,578,71,72,0,72,0.45,3.30,0.89,0.62
2016-10-22 10:00:00,2,536,72,1.98,1,2,0,2,326,693,125,564,72,72,0,72,0.65,8.50,2.39,0.90
2016-10-22 10:10:00,2,557,72,0.98,2,2,0,2,336,956,194,497,71,72,0,72,0.35,1.90,0.50,0.88
2016-10-22 10:20:00,2,469,72,1.42,2,2,0,2,310,551,68,482,72,72,0,72,0.45,2.60,0.75,1.25
2016-10-22 10:30:00,2,472,72,1.31,2,2,0,2,381,694,98,424,72,73,0,72,0.70,2.35,0.47,1.35
2016-10-22 10:40:00,2,674,72,0.59,2,2,0,2,455,1053,162,663,71,72,0,72,0.20,1.05,0.24,0.55
2016-10-22 10:50:00,2,667,71,0.65,2,2,0,2,365,1080,184,652,71,72,0,71,0.10,1.80,0.49,0.50
2016-10-22 11:00:00,2,685,73,0.53,2,2,0,2,500,995,131,675,71,77,3,72,0.25,0.90,0.21,0.47
2016-10-22 11:10:00,2,1194,75,0.21,2,2,0,2,772,1732,333,1048,71,77,3,77,0.05,0.45,0.14,0.17
2016-10-22 11:20:00,2,1452,70,0.05,2,2,0,2,752,2272,468,1398,10,77,20,77,0.00,0.15,0.05,0.03
2016-10-22 11:30:00,2,1600,76,0.06,2,2,0,2,1103,2200,324,1578,71,77,2,77,0.00,0.15,0.05,0.05
2016-10-22 11:40:00,2,1697,77,0.06,2,2,0,2,1398,2063,236,1630,77,77,0,77,0.00,0.15,0.04,0.05
2016-10-22 11:50:00,2,1704,37,0.02,2,2,0,2,1276,2176,266,1608,10,77,33,10,0.00,0.10,0.03,0.00
2016-10-22 12:00:00,2,1565,56,0.07,2,2,0,2,996,2295,397,1540,10,77,30,74,0.00,0.30,0.10,0.03
2016-10-22 12:10:00,2,1291,77,0.20,2,2,0,2,833,2056,298,1275,77,77,0,77,0.05,0.40,0.09,0.17
2016-10-22 12:20:00,2,995,74,0.37,2,2,0,2,584,1556,299,949,71,77,3,74,0.05,0.85,0.29,0.25
2016-10-22 12:30:00,2,1405,74,0.17,2,2,0,2,1210,1828,178,1350,71,77,3,74,0.05,0.30,0.08,0.15
2016-10-22 12:40:00,2,1238,77,0.20,2,2,0,2,999,2039,294,1118,77,77,0,77,0.10,0.30,0.06,0.20
2016-10-22 12:50:00,2,914,77,0.29,2,2,0,2,580,1513,279,858,77,77,0,77,0.15,0.50,0.11,0.28
2016-10-22 13:00:00,2,667,72,0.98,2,2,0,2,335,1246,245,634,71,77,2,72,0.10,4.50,1.23,0.45
2016-10-22 13:10:00,2,767,71,0.74,2,2,0,2,463,1148,213,780,71,72,0,71,0.15,2.60,0.67,0.60
2016-10-22 13:20:00,2,889,71,0.44,2,2,0,2,575,1331,255,860,71,71,0,71,0.15,1.30,0.37,0.25
2016-10-22 13:30:00,2,916,75,0.39,2,2,0,2,461,1220,224,920,71,77,3,77,0.05,1.35,0.36,0.25
2016-10-22 13:40:00,2,1122,76,0.33,2,2,0,2,498,2023,440,1071,71,77,2,77,0.05,0.85,0.31,0.15
2016-10-22 13:50:00,2,1125,77,0.29,2,2,0,2,655,1788,356,1055,77,77,0,77,0.05,0.75,0.22,0.25
2016-10-22 14:00:00,2,1284,77,0.22,2,2,0,2,670,1828,301,1317,77,77,0,77,0.10,0.55,0.12,0.20
2016-10-22 14:10:00,2,1303,77,0.22,2,2,0,2,728,2148,497,1118,77,77,0,77,0.00,0.50,0.16,0.20
2016-10-22 14:20:00,2,1094,75,0.31,2,2,0,2,830,1331,190,1100,71,77,3,77,0.15,0.50,0.10,0.30
2016-10-22 14:30:00,2,1160,74,0.29,2,2,0,2,966,1604,193,1096,71,77,3,74,0.15,0.45,0.08,0.28
2016-10-22 14:40:00,2,1051,69,0.32,2,2,0,2,454,1402,302,1144,0,77,23,77,0.00,0.90,0.27,0.25
2016-10-22 14:50:00,2,1085,71,0.93,2,2,0,2,346,2949,745,949,71,71,0,71,0.00,3.10,1.02,0.48
2016-10-22 15:00:00,2,863,67,0.48,2,2,0,2,479,1985,402,738,33,71,11,71,0.00,1.20,0.34,0.45
2016-10-22 15:10:00,2,1117,73,0.44,2,2,0,2,431,1774,448,1024,71,77,3,71,0.05,1.70,0.49,0.20
2016-10-22 15:20:00,2,1133,71,0.73,2,2,0,2,424,2712,702,776,71,71,0,71,0.00,3.70,1.06,0.28
2016-10-22 15:30:00,2,1215,71,0.33,2,2,0,2,628,2214,501,1089,71,71,0,71,0.00,0.85,0.29,0.23
2016-10-22 15:40:00,2,1012,72,0.49,2,2,0,2,502,2037,436,930,71,77,2,71,0.00,1.40,0.46,0.38
2016-10-22 15:50:00,2,993,71,0.66,2,2,0,2,387,2048,503,787,71,71,0,71,0.05,2.75,0.76,0.45
2016-10-22 16:00:00,2,1116,75,0.30,2,2,0,2,777,1735,309,1066,71,77,3,77,0.10,0.55,0.12,0.25
2016-10-22 16:10:00,2,988,76,0.32,2,2,0,2,542,1347,260,1061,71,77,2,77,0.05,1.05,0.30,0.25
2016-10-22 16:20:00,2,1596,77,0.20,2,2,0,2,943,3170,607,1426,77,77,0,77,0.05,0.45,0.13,0.17
2016-10-22 16:30:00,2,1864,69,0.15,2,2,0,2,1231,3132,534,1824,10,77,20,77,0.00,0.35,0.11,0.15
2016-10-22 16:40:00,2,1690,77,0.21,2,2,0,2,959,2736,506,1601,77,77,0,77,0.00,0.40,0.13,0.23
2016-10-22 16:50:00,2,2094,77,0.12,2,2,0,2,1247,3106,472,2031,77,77,0,77,0.00,0.30,0.09,0.08
2016-10-22 17:00:00,2,1797,62,0.14,2,2,0,2,1355,2647,419,1747,10,77,26,77,0.00,0.30,0.11,0.10
2016-10-22 17:10:00,2,2635,49,0.04,2,2,0,2,1614,4856,915,2487,10,77,32,71,0.00,0.20,0.06,0.03
2016-10-22 17:20:00,2,3601,64,0.01,2,2,0,2,2414,5070,851,3540,10,77,27,77,0.00,0.05,0.02,0.00
2016-10-22 17:30:00,2,4838,10,0.00,2,2,0,2,2982,8439,1916,3919,10,10,0,10,0.00,0.00,0.00,0.00
2016-10-22 17:40:00,2,12195,10,0.00,2,2,0,2,3596,25219,7324,10508,10,10,0,10,0.00,0.00,0.00,0.00
2016-10-22 17:50:00,2,10419,5,0.00,2,2,0,2,5540,18924,4000,9614,0,10,5,5,0.00,0.00,0.00,0.00
2016-10-22 18:00:00,2,10959,6,0.00,2,2,0,2,5325,21794,4625,9348,0,10,5,10,0.00,0.00,0.00,0.00
2016-10-22 18:10:00,2,10404,10,0.00,2,2,0,2,3720,22059,5484,7984,10,10,0,10,0.00,0.00,0.00,0.00
2016-10-22 18:20:00,2,18458,9,0.00,2,2,0,2,7322,33620,8366,16262,0,10,3,10,0.00,0.00,0.00,0.00
2016-10-22 18:30:00,2,18349,0,0.00,2,2,0,2,7739,36543,9923,14480,0,0,0,0,0.00,0.00,0.00,0.00
2016-10-22 18:40:00,2,22762,0,0.00,2,2,0,2,14059,32641,5696,22923,0,0,0,0,0.00,0.00,0.00,0.00
2016-10-22 18:50:00,2,31424,0,0.00,2,2,0,2,17685,43600,8405,29138,0,0,0,0,0.00,0.00,0.00,0.00
2016-10-22 19:00:00,2,27048,0,0.00,2,2,0,2,12132,40104,11558,32035,0,0,0,0,0.00,0.00,0.00,0.00
2016-10-22 19:10:00,2,6332,5,0.00,2,2,0,2,4149,11454,2248,5567,0,10,5,5,0.00,0.00,0.00,0.00
2016-10-22 19:20:00,2,3883,10,0.00,2,2,0,2,2802,4683,659,3996,10,10,0,10,0.00,0.00,0.00,0.00
2016-10-22 19:30:00,2,2353,42,0.03,2,2,0,2,1246,4325,895,2158,10,77,32,40,0.00,0.15,0.06,0.00
2016-10-22 19:40:00,2,1876,77,0.12,2,2,0,2,1421,2386,289,1938,77,77,0,77,0.05,0.25,0.06,0.12
2016-10-22 19:50:00,2,1857,77,0.14,2,2,0,2,1617,2684,296,1734,77,77,0,77,0.00,0.40,0.11,0.10
2016-10-22 20:00:00,2,1692,77,0.21,2,2,0,2,1221,2416,393,1517,77,77,0,77,0.00,0.40,0.12,0.25
2016-10-22 20:10:00,2,1961,77,0.13,2,2,0,2,1371,2947,519,1680,77,77,0,77,0.05,0.25,0.08,0.12
2016-10-22 20:20:00,2,1672,77,0.12,2,2,0,2,1207,2669,403,1602,77,77,0,77,0.05,0.25,0.07,0.12
2016-10-22 20:30:00,2,1517,77,0.26,2,2,0,2,1138,2109,326,1510,77,77,0,77,0.05,0.55,0.15,0.25
2016-10-22 20:40:00,2,1943,77,0.14,2,2,0,2,1349,2616,400,1936,77,77,0,77,0.05,0.25,0.06,0.12
2016-10-22 20:50:00,2,2767,76,0.06,2,2,0,2,1373,4575,1013,2862,71,77,2,77,0.00,0.15,0.06,0.03
2016-10-22 21:00:00,2,1943,77,0.11,2,2,0,2,1387,2562,439,1956,77,77,0,77,0.00,0.30,0.09,0.08
2016-10-22 21:10:00,2,2254,76,0.06,2,2,0,2,1574,2972,387,2280,71,77,2,77,0.00,0.10,0.04,0.05
2016-10-22 21:20:00,2,4696,77,0.00,2,2,0,2,3695,5386,608,4686,77,77,0,77,0.00,0.00,0.00,0.00
2016-10-22 21:30:00,2,2420,10,0.00,2,2,0,2,1810,3314,484,2219,10,10,0,10,0.00,0.00,0.00,0.00
2016-10-22 21:40:00,2,3386,10,0.00,2,2,0,2,1721,4608,718,3415,10,10,0,10,0.00,0.00,0.00,0.00
2016-10-22 21:50:00,2,2213,56,0.04,2,2,0,2,1543,2882,405,2148,10,77,30,74,0.00,0.10,0.04,0.05
2016-10-22 22:00:00,2,2932,56,0.05,2,2,0,2,904,7184,1803,2400,10,77,30,74,0.00,0.25,0.08,0.00
2016-10-22 22:10:00,2,3375,57,0.02,2,2,0,2,1738,6545,1546,2996,10,77,31,77,0.00,0.10,0.03,0.00
2016-10-22 22:20:00,2,3665,10,0.00,2,2,0,2,2156,6230,1041,3406,10,10,0,10,0.00,0.00,0.00,0.00
2016-10-22 22:30:00,2,5005,10,0.00,2,2,0,2,2021,8127,1725,5158,10,10,0,10,0.00,0.00,0.00,0.00
2016-10-22 22:40:00,2,15939,10,0.00,2,2,0,2,6687,31941,8001,14725,10,10,0,10,0.00,0.00,0.00,0.00
2016-10-22 22:50:00,2,16050,0,0.00,2,2,0,2,9600,24571,5081,14906,0,0,0,0,0.00,0.00,0.00,0.00
2016-10-22 23:00:00,2,19443,0,0.00,2,2,0,2,8230,37020,8237,17199,0,0,0,0,0.00,0.00,0.00,0.00
2016-10-22 23:10:00,2,22306,0,0.00,2,2,0,2,6133,31897,8301,24180,0,0,0,0,0.00,0.00,0.00,0.00
2016-10-22 23:20:00,2,13703,0,0.00,2,2,0,2,4490,23688,6851,12066,0,0,0,0,0.00,0.00,0.00,0.00
2016-10-22 23:30:00,2,20199,0,0.00,2,2,0,2,9749,30549,5497,19908,0,0,0,0,0.00,0.00,0.00,0.00
2016-10-22 23:40:00,2,16322,0,0.00,2,2,0,2,8222,38347,8832,13244,0,0,0,0,0.00,0.00,0.00,0.00
2016-10-22 23:50:00,2,17819,0,0.00,2,2,0,2,11092,30780,6690,15403,0,0,0,0,0.00,0.00,0.00,0.00
